| time (UTC) | temp F | wind direction | speed knots | gust knots | rain 1hr in | rain 24hr in | rain mn in | humidity % | barometer mb |
| 20260507104026 | 31 | 115 | 0.9 | 2.6 | 0.00 | 0.00 | 0.00 | 76 | 935.1 |
| 20260507103019 | 32 | 153 | 0.0 | 0.9 | 0.00 | 0.00 | 0.00 | 79 | 935.1 |
| 20260507102042 | 33 | 132 | 0.0 | 0.9 | 0.00 | 0.00 | 0.00 | 77 | 935.1 |
| 20260507101035 | 33 | 155 | 0.9 | 0.9 | 0.00 | 0.00 | 0.00 | 74 | 935.2 |
| 20260507100027 | 34 | 163 | 0.0 | 0.9 | 0.00 | 0.00 | 0.00 | 71 | 935.2 |
| 20260507095020 | 34 | 0.0 | 0.0 | 0.00 | 0.00 | 0.00 | 68 | 935.3 | |
| 20260507094104 | 34 | 162 | 0.0 | 0.9 | 0.00 | 0.00 | 0.00 | 67 | 935.3 |
| 20260507093037 | 34 | 169 | 0.9 | 2.6 | 0.00 | 0.00 | 0.00 | 67 | 935.2 |
| 20260507092028 | 33 | 0.0 | 0.0 | 0.00 | 0.00 | 0.00 | 66 | 935.2 | |
| 20260507091042 | 33 | 0.0 | 0.0 | 0.00 | 0.00 | 0.00 | 67 | 935.3 | |
| 20260507090045 | 34 | 168 | 0.9 | 2.6 | 0.00 | 0.00 | 0.00 | 66 | 935.3 |
| 20260507085038 | 33 | 165 | 0.0 | 0.9 | 0.00 | 0.00 | 0.00 | 71 | 935.3 |
| 20260507084031 | 34 | 0.0 | 0.0 | 0.00 | 0.00 | 0.00 | 73 | 935.3 | |
| 20260507083023 | 34 | 155 | 0.0 | 0.9 | 0.00 | 0.00 | 0.00 | 72 | 935.3 |
| 20260507082048 | 33 | 0.0 | 0.0 | 0.00 | 0.00 | 0.00 | 69 | 935.2 | |
| 20260507081039 | 34 | 0.0 | 0.0 | 0.00 | 0.00 | 0.00 | 71 | 935.2 | |
| 20260507080033 | 34 | 0.0 | 0.0 | 0.00 | 0.00 | 0.00 | 68 | 935.3 | |
| 20260507075024 | 34 | 0.0 | 0.0 | 0.00 | 0.00 | 0.00 | 67 | 935.3 | |
| 20260507074038 | 35 | 153 | 0.9 | 2.6 | 0.00 | 0.00 | 0.00 | 66 | 935.3 |
| 20260507073041 | 34 | 143 | 0.0 | 0.9 | 0.00 | 0.00 | 0.00 | 66 | 935.4 |
| 20260507072054 | 35 | 143 | 0.9 | 2.6 | 0.00 | 0.00 | 0.00 | 64 | 935.5 |
| 20260507071026 | 35 | 144 | 0.9 | 0.9 | 0.00 | 0.00 | 0.00 | 61 | 935.6 |
| 20260507070100 | 35 | 133 | 0.9 | 2.6 | 0.00 | 0.00 | 0.00 | 62 | 935.6 |
| 20260507065042 | 34 | 142 | 0.0 | 0.9 | 0.00 | 0.00 | 0.00 | 65 | 935.7 |
| 20260507064035 | 35 | 155 | 0.9 | 2.6 | 0.00 | 0.00 | 0.00 | 65 | 935.7 |
| 20260507063027 | 34 | 144 | 0.0 | 2.6 | 0.00 | 0.00 | 0.00 | 66 | 935.8 |
| 20260507062020 | 34 | 138 | 0.0 | 0.9 | 0.00 | 0.00 | 0.00 | 65 | 935.7 |
| 20260507061155 | 34 | 143 | 0.0 | 0.9 | 0.00 | 0.00 | 0.00 | 64 | 935.6 |
| 20260507060031 | 34 | 136 | 0.0 | 0.9 | 0.00 | 0.00 | 0.00 | 62 | 935.7 |
| 20260507055024 | 35 | 130 | 0.9 | 2.6 | 0.00 | 0.00 | 0.00 | 65 | 935.7 |
| 20260507054048 | 35 | 137 | 0.9 | 0.9 | 0.00 | 0.00 | 0.00 | 62 | 935.7 |
| 20260507053101 | 35 | 141 | 0.0 | 0.9 | 0.00 | 0.00 | 0.00 | 63 | 935.8 |
| 20260507052032 | 35 | 136 | 0.9 | 0.9 | 0.00 | 0.00 | 0.00 | 60 | 935.9 |
| 20260507051025 | 35 | 139 | 0.0 | 0.9 | 0.00 | 0.00 | 0.00 | 62 | 935.8 |
| 20260507050017 | 35 | 0.0 | 0.0 | 0.00 | 0.00 | 0.00 | 69 | 935.9 | |
| 20260507045042 | 36 | 152 | 0.0 | 0.9 | 0.00 | 0.00 | 0.00 | 67 | 935.9 |
| 20260507044035 | 36 | 157 | 0.0 | 0.9 | 0.00 | 0.00 | 0.00 | 66 | 936.0 |
| 20260507043027 | 37 | 156 | 0.0 | 0.9 | 0.00 | 0.00 | 0.00 | 67 | 936.0 |
| 20260507042040 | 38 | 159 | 0.9 | 2.6 | 0.00 | 0.00 | 0.00 | 64 | 936.0 |
| 20260507041044 | 38 | 0.0 | 0.0 | 0.00 | 0.00 | 0.00 | 62 | 936.2 | |
| 20260507040037 | 39 | 147 | 0.0 | 0.9 | 0.00 | 0.00 | 0.00 | 59 | 936.2 |
| 20260507035049 | 39 | 0.0 | 0.0 | 0.00 | 0.00 | 0.00 | 57 | 936.2 | |
| 20260507034042 | 40 | 145 | 0.0 | 2.6 | 0.00 | 0.00 | 0.00 | 55 | 936.2 |
| 20260507033045 | 41 | 129 | 0.0 | 3.5 | 0.00 | 0.00 | 0.00 | 55 | 936.2 |
| 20260507032039 | 41 | 109 | 1.7 | 4.3 | 0.00 | 0.00 | 0.00 | 53 | 936.1 |
| 20260507031050 | 42 | 96 | 2.6 | 3.5 | 0.00 | 0.00 | 0.00 | 50 | 936.2 |
| 20260507030023 | 43 | 107 | 2.6 | 4.3 | 0.00 | 0.00 | 0.00 | 49 | 936.1 |
| 20260507025046 | 43 | 94 | 3.5 | 8.7 | 0.00 | 0.00 | 0.00 | 47 | 936.0 |
| 20260507024104 | 45 | 87 | 4.3 | 7.0 | 0.00 | 0.00 | 0.00 | 44 | 936.1 |
| 20260507023031 | 45 | 92 | 2.6 | 3.5 | 0.00 | 0.00 | 0.00 | 46 | 936.0 |
| 20260507022024 | 45 | 87 | 3.5 | 6.1 | 0.00 | 0.00 | 0.00 | 44 | 936.0 |
| 20260507021016 | 46 | 77 | 3.5 | 6.1 | 0.00 | 0.00 | 0.00 | 42 | 936.0 |
| 20260507020041 | 47 | 88 | 2.6 | 6.1 | 0.00 | 0.00 | 0.00 | 41 | 936.0 |
| 20260507015032 | 48 | 94 | 2.6 | 6.1 | 0.00 | 0.00 | 0.00 | 40 | 936.0 |
| 20260507014026 | 49 | 78 | 4.3 | 8.7 | 0.00 | 0.00 | 0.00 | 39 | 936.0 |
| 20260507013019 | 50 | 85 | 3.5 | 7.0 | 0.00 | 0.00 | 0.00 | 38 | 936.0 |
| 20260507012043 | 50 | 67 | 3.5 | 6.1 | 0.00 | 0.00 | 0.00 | 36 | 936.1 |
| 20260507011038 | 51 | 55 | 5.2 | 10.4 | 0.00 | 0.00 | 0.00 | 33 | 936.0 |
| 20260507010027 | 53 | 42 | 3.5 | 7.0 | 0.00 | 0.00 | 0.00 | 27 | 936.1 |
| 20260507005021 | 53 | 341 | 5.2 | 8.7 | 0.00 | 0.00 | 0.00 | 26 | 936.0 |
| 20260507004044 | 53 | 352 | 5.2 | 7.0 | 0.00 | 0.00 | 0.00 | 26 | 936.2 |
| 20260507003038 | 54 | 3 | 6.1 | 9.6 | 0.00 | 0.00 | 0.00 | 27 | 936.2 |
| 20260507002029 | 52 | 69 | 3.5 | 6.1 | 0.00 | 0.00 | 0.00 | 28 | 936.2 |
| 20260507001042 | 54 | 1 | 7.8 | 12.2 | 0.00 | 0.00 | 0.00 | 28 | 936.3 |
| 20260507000045 | 54 | 284 | 6.1 | 9.6 | 0.00 | 0.00 | 0.00 | 27 | 936.4 |
| 20260506235039 | 54 | 340 | 7.8 | 13.9 | 0.00 | 0.00 | 0.00 | 27 | 936.5 |
| 20260506234032 | 54 | 284 | 4.3 | 8.7 | 0.00 | 0.00 | 0.00 | 29 | 936.6 |
| 20260506233024 | 54 | 276 | 6.1 | 12.2 | 0.00 | 0.00 | 0.00 | 31 | 936.7 |
| 20260506232047 | 53 | 352 | 6.1 | 10.4 | 0.00 | 0.00 | 0.00 | 28 | 936.8 |
| 20260506231040 | 52 | 355 | 7.0 | 10.4 | 0.00 | 0.00 | 0.00 | 30 | 936.8 |
| 20260506230033 | 54 | 6 | 9.6 | 13.9 | 0.00 | 0.00 | 0.00 | 30 | 936.8 |
| 20260506225025 | 52 | 315 | 7.0 | 12.2 | 0.00 | 0.00 | 0.00 | 31 | 936.9 |
| 20260506224018 | 52 | 351 | 6.1 | 12.2 | 0.00 | 0.00 | 0.00 | 30 | 937.1 |
| 20260506223102 | 52 | 310 | 8.7 | 16.5 | 0.00 | 0.00 | 0.00 | 34 | 937.2 |
| 20260506222035 | 53 | 297 | 7.8 | 13.9 | 0.00 | 0.00 | 0.00 | 34 | 937.2 |
| 20260506221026 | 53 | 274 | 7.0 | 12.2 | 0.00 | 0.00 | 0.00 | 36 | 937.4 |
| 20260506220019 | 51 | 305 | 5.2 | 10.4 | 0.00 | 0.00 | 0.00 | 33 | 937.5 |
| 20260506215043 | 52 | 294 | 9.6 | 16.5 | 0.00 | 0.00 | 0.00 | 35 | 937.6 |
| 20260506214036 | 53 | 301 | 9.6 | 16.5 | 0.00 | 0.00 | 0.00 | 32 | 937.8 |
| 20260506213048 | 52 | 279 | 7.0 | 12.2 | 0.00 | 0.00 | 0.00 | 35 | 937.9 |
| 20260506212021 | 53 | 247 | 5.2 | 10.4 | 0.00 | 0.00 | 0.00 | 34 | 938.1 |
| 20260506211044 | 51 | 283 | 7.8 | 15.6 | 0.00 | 0.00 | 0.00 | 37 | 938.4 |
| 20260506210038 | 51 | 357 | 2.6 | 6.1 | 0.00 | 0.00 | 0.00 | 32 | 938.4 |
| 20260506205031 | 51 | 336 | 7.0 | 10.4 | 0.00 | 0.00 | 0.00 | 35 | 938.7 |
| 20260506204022 | 50 | 249 | 4.3 | 7.0 | 0.00 | 0.00 | 0.00 | 33 | 938.7 |
| 20260506203047 | 51 | 298 | 8.7 | 13.0 | 0.00 | 0.00 | 0.00 | 35 | 938.8 |
| 20260506202039 | 51 | 326 | 6.1 | 13.0 | 0.00 | 0.00 | 0.00 | 34 | 938.9 |
| 20260506201032 | 50 | 301 | 10.4 | 15.6 | 0.00 | 0.00 | 0.00 | 37 | 939.1 |
| 20260506200023 | 51 | 277 | 6.1 | 13.0 | 0.00 | 0.00 | 0.00 | 36 | 939.1 |
| 20260506195017 | 50 | 291 | 10.4 | 15.6 | 0.00 | 0.00 | 0.00 | 37 | 939.4 |
| 20260506194100 | 49 | 288 | 7.8 | 12.2 | 0.00 | 0.00 | 0.00 | 38 | 939.4 |
| 20260506193034 | 49 | 356 | 7.8 | 12.2 | 0.00 | 0.00 | 0.00 | 36 | 939.5 |
| 20260506192025 | 50 | 299 | 7.8 | 13.0 | 0.00 | 0.00 | 0.00 | 37 | 939.7 |
| 20260506191018 | 49 | 290 | 9.6 | 16.5 | 0.00 | 0.00 | 0.00 | 37 | 939.9 |
| 20260506185035 | 49 | 290 | 7.8 | 12.2 | 0.00 | 0.00 | 0.00 | 38 | 940.0 |
| 20260506184028 | 48 | 289 | 9.6 | 18.2 | 0.00 | 0.00 | 0.00 | 38 | 940.2 |
| 20260506183020 | 49 | 282 | 9.6 | 13.0 | 0.00 | 0.00 | 0.00 | 40 | 940.4 |
| 20260506182045 | 48 | 302 | 6.1 | 12.2 | 0.00 | 0.00 | 0.00 | 37 | 940.6 |
| 20260506181036 | 47 | 308 | 9.6 | 15.6 | 0.00 | 0.00 | 0.00 | 39 | 940.7 |
| 20260506180030 | 48 | 295 | 10.4 | 15.6 | 0.00 | 0.00 | 0.00 | 43 | 940.7 |
| 20260506175021 | 47 | 298 | 9.6 | 16.5 | 0.00 | 0.00 | 0.00 | 41 | 940.9 |
| 20260506174046 | 47 | 317 | 8.7 | 15.6 | 0.00 | 0.00 | 0.00 | 39 | 941.0 |
| 20260506173038 | 47 | 327 | 11.3 | 18.2 | 0.00 | 0.00 | 0.00 | 40 | 941.0 |
| 20260506172051 | 47 | 323 | 9.6 | 19.1 | 0.00 | 0.00 | 0.00 | 41 | 941.2 |
| 20260506171022 | 46 | 312 | 9.6 | 16.5 | 0.00 | 0.00 | 0.00 | 40 | 941.3 |
| 20260506170048 | 45 | 283 | 8.7 | 19.1 | 0.00 | 0.00 | 0.00 | 42 | 941.5 |
| 20260506165039 | 45 | 279 | 7.8 | 15.6 | 0.00 | 0.00 | 0.00 | 44 | 941.5 |
| 20260506164032 | 45 | 326 | 8.7 | 13.0 | 0.00 | 0.00 | 0.00 | 42 | 941.7 |
| 20260506163025 | 44 | 320 | 9.6 | 16.5 | 0.00 | 0.00 | 0.00 | 44 | 941.9 |
| 20260506162017 | 43 | 323 | 10.4 | 13.9 | 0.00 | 0.00 | 0.00 | 44 | 941.9 |
| 20260506161043 | 43 | 325 | 8.7 | 13.0 | 0.00 | 0.00 | 0.00 | 45 | 941.9 |
| 20260506150542 | 41 | 320 | 8.7 | 13.9 | 0.00 | 0.00 | 0.00 | 48 | 942.3 |
| 20260506145552 | 40 | 282 | 4.3 | 8.7 | 0.00 | 0.00 | 0.00 | 54 | 942.3 |
| 20260506144525 | 39 | 226 | 4.3 | 7.0 | 0.00 | 0.00 | 0.00 | 57 | 942.3 |
| 20260506143516 | 37 | 244 | 4.3 | 6.1 | 0.00 | 0.00 | 0.00 | 61 | 942.4 |
| 20260506142602 | 35 | 246 | 4.3 | 8.7 | 0.00 | 0.00 | 0.00 | 63 | 942.4 |
| 20260506141535 | 35 | 255 | 5.2 | 7.0 | 0.00 | 0.00 | 0.00 | 65 | 942.5 |
| 20260506140607 | 33 | 261 | 4.3 | 7.0 | 0.00 | 0.00 | 0.00 | 67 | 942.6 |
| 20260506135520 | 32 | 268 | 4.3 | 7.0 | 0.00 | 0.00 | 0.00 | 69 | 942.5 |
| 20260506134543 | 31 | 263 | 5.2 | 7.0 | 0.00 | 0.00 | 0.00 | 71 | 942.6 |
| 20260506133539 | 30 | 289 | 4.3 | 7.0 | 0.00 | 0.00 | 0.00 | 71 | 942.6 |
| 20260506132529 | 30 | 294 | 5.2 | 8.7 | 0.00 | 0.00 | 0.00 | 73 | 942.6 |
| 20260506131521 | 29 | 282 | 6.1 | 9.6 | 0.00 | 0.00 | 0.00 | 74 | 942.5 |
| 20260506130605 | 28 | 292 | 5.2 | 7.0 | 0.00 | 0.00 | 0.00 | 75 | 942.5 |
| 20260506125540 | 28 | 282 | 6.1 | 9.6 | 0.00 | 0.00 | 0.00 | 73 | 942.5 |
| 20260506124530 | 27 | 297 | 5.2 | 8.7 | 0.00 | 0.00 | 0.00 | 73 | 942.3 |
| 20260506123543 | 27 | 285 | 6.1 | 9.6 | 0.00 | 0.00 | 0.00 | 74 | 942.3 |
| 20260506122546 | 26 | 287 | 6.1 | 9.6 | 0.00 | 0.00 | 0.00 | 75 | 942.3 |
| 20260506121539 | 26 | 304 | 3.5 | 4.3 | 0.00 | 0.00 | 0.00 | 74 | 942.2 |
| 20260506120537 | 25 | 275 | 4.3 | 6.1 | 0.00 | 0.00 | 0.00 | 74 | 942.1 |
| 20260506115524 | 25 | 312 | 5.2 | 8.7 | 0.00 | 0.00 | 0.00 | 72 | 942.0 |
| 20260506114517 | 25 | 290 | 3.5 | 4.3 | 0.00 | 0.00 | 0.00 | 73 | 941.9 |
| 20260506113541 | 25 | 312 | 3.5 | 4.3 | 0.00 | 0.00 | 0.00 | 72 | 941.8 |
| 20260506112536 | 25 | 295 | 4.3 | 7.0 | 0.00 | 0.00 | 0.00 | 71 | 941.7 |
| 20260506111546 | 26 | 290 | 3.5 | 6.1 | 0.00 | 0.00 | 0.00 | 72 | 941.8 |
| 20260506110519 | 26 | 316 | 4.3 | 7.0 | 0.00 | 0.00 | 0.00 | 72 | 941.7 |
| 20260506105603 | 26 | 289 | 3.5 | 6.1 | 0.00 | 0.00 | 0.00 | 72 | 941.7 |
| 20260506104536 | 27 | 295 | 3.5 | 4.3 | 0.00 | 0.00 | 0.00 | 70 | 941.6 |